Printer-friendly version

IAU Minor Planet Center

Minor Planet Center

MPEC 2000-L22: 2000 LD3

The following Minor Planet Electronic Circular may be linked-to from your own Web pages, but must not otherwise be redistributed electronically.


Read MPEC 2000-L21 Read MPEC 2000-L23


M.P.E.C. 2000-L22                                Issued 2000 June 6, 20:37 UT

     The Minor Planet Electronic Circulars contain information on unusual
         minor planets and routine data on comets.  They are published
   on behalf of Commission 20 of the International Astronomical Union by the
          Minor Planet Center, Smithsonian Astrophysical Observatory,
                          Cambridge, MA 02138, U.S.A.

             Prepared using the Tamkin Foundation Computer Network

             BMARSDEN@CFA.HARVARD.EDU or GWILLIAMS@CFA.HARVARD.EDU
          URL http://cfa-www.harvard.edu/iau/mpc.html  ISSN 1523-6714

                                   2000 LD3

Observations:
     K00L03D* C2000 06 03.30895 14 23 14.38 +23 02 31.3          17.5 R      699
     K00L03D  C2000 06 03.32163 14 23 13.37 +22 58 41.0                      699
     K00L03D  C2000 06 03.33428 14 23 12.38 +22 54 51.6                      699
     K00L03D  C2000 06 03.34696 14 23 11.42 +22 51 02.7                      699
     K00L03D  C2000 06 04.20225 14 22 23.93 +18 45 53.5          17.6 R      699
     K00L03D  C2000 06 04.21490 14 22 22.99 +18 42 25.9                      699
     K00L03D  C2000 06 04.22756 14 22 22.19 +18 38 58.2                      699
     K00L03D  C2000 06 04.24027 14 22 21.27 +18 35 31.5                      699
     K00L03D  C2000 06 04.87987 14 21 50.59 +15 47 21.8                      557
     K00L03D  C2000 06 04.88046 14 21 50.65 +15 47 12.1                      557
     K00L03D WC2000 06 04.88223 14 21 50.53 +15 46 44.7                      557
     K00L03D  C2000 06 04.93618 14 21 47.36 +15 33 09.6                      118
     K00L03D  C2000 06 04.94087 14 21 47.13 +15 31 57.4                      118
     K00L03D  C2000 06 04.94206 14 21 47.03 +15 31 40.6                      118
     K00L03D  C2000 06 04.95402 14 21 46.50 +15 28 38.7                      046
     K00L03D  C2000 06 04.95487 14 21 46.35 +15 28 26.8                      046
     K00L03D  C2000 06 04.95556 14 21 46.49 +15 28 16.7                      046
     K00L03D  C2000 06 04.95639 14 21 46.30 +15 28 04.5          17.5 R      046
     K00L03D  C2000 06 04.95696 14 21 46.34 +15 27 55.9          17.7 R      046
     K00L03D 4C2000 06 05.21262 14 21 36.68 +14 24 56.0                      673
     K00L03D 4C2000 06 05.21582 14 21 36.54 +14 24 09.3                      673
     K00L03D 4C2000 06 05.21738 14 21 36.48 +14 23 45.9                      673
     K00L03D  C2000 06 05.31045 14 21 31.06 +14 01 12.0          18.5 V      651
     K00L03D  C2000 06 05.31119 14 21 31.02 +14 01 01.4          18.4 V      651
     K00L03D  C2000 06 05.31191 14 21 31.00 +14 00 51.1          18.3 V      651

Observer details:
046 Klet.  Observers J. Ticha, M. Tichy.  0.57-m f/5.2 reflector + CCD.
118 Modra.  Observers L. Kornos, P. Koleny.  0.6-m f/5.5 reflector + CCD.
557 Ondrejov.  Observer L. Sarounova.  0.65-m f/3.6 reflector + CCD.
651 Grasslands Observatory, Tucson.  Observer J. E. McGaha.  0.62-m f/5.1
    reflector + CCD.
673 Table Mountain Observatory, Wrightwood.  Observer M. Hicks.  0.6-m
    reflector + CCD.
699 Lowell Observatory-LONEOS.  Observer B. A. Skiff.  Measurer B. W. Koehn.
    0.59-m LONEOS Schmidt + CCD.

Orbital elements:
2000 LD3
Epoch 2000 May 16.0 TT = JDT 2451680.5                  Williams
M  18.20650              (2000.0)            P               Q
n   0.49781412     Peri.   48.89213     -0.37789325     -0.69904981
a   1.5767321      Node    73.84371     +0.53904320     -0.69921249
e   0.7629364      Incl.   39.19964     +0.75274772     +0.14977068
P   1.98           H   19.6           G   0.15
From 25 observations 2000 June 3-5.

Ephemeris:
2000 LD3                 a,e,i = 1.58, 0.76, 39                  q = 0.3738
Date    TT    R. A. (2000) Decl.     Delta      r     Elong.  Phase     V
2000 06 05    14 21.76   +15 17.8    0.198    1.145   127.0    45.1    18.1
2000 06 10    14 19.82   -00 27.0    0.267    1.211   132.1    38.5    18.7
2000 06 15    14 19.99   -09 29.6    0.349    1.275   131.5    36.6    19.3
2000 06 20    14 21.42   -15 08.2    0.438    1.336   129.1    36.2    19.9
2000 06 25    14 23.73   -18 57.3    0.530    1.395   125.9    36.1    20.4
2000 06 30    14 26.76   -21 42.6    0.626    1.453   122.6    36.1    20.9
2000 07 05    14 30.39   -23 48.2    0.723    1.508   119.2    36.0    21.3
2000 07 10    14 34.53   -25 27.8    0.823    1.562   115.8    35.9    21.6
2000 07 15    14 39.12   -26 49.4    0.924    1.614   112.5    35.6    21.9

Gareth V. Williams           (C) Copyright 2000 MPC           M.P.E.C. 2000-L22

Read MPEC 2000-L21 Read MPEC 2000-L23


Our Web policy. Index to the CBAT/MPC/ICQ pages.


Valid HTML 4.01!